Location: Chervonnoye
(48.6000°N, 34.4000°E)
Time: 14:25:12
(UTC+00:00)

Cosmos 2219 Rocket - Pass Details

Date: 23 November 2020
Orbit: 829 x 845 km, 71.0° (Epoch: 26 January)

Event Time Altitude Azimuth Distance (km) Brightness Sun altitude
Rises 16:09:17 0° 247° (WSW) 3,390 6.7 -21.8°
Reaches altitude 10° 16:12:09 10° 260° (W) 2,457 5.8 -22.3°
Maximum altitude 16:16:46 26° 315° (NW) 1,619 4.0 -23.0°
Drops below altitude 10° 16:21:25 10° 11° (N) 2,458 4.5 -23.8°
Enters shadow 16:21:30 10° 11° (NNE) 2,484 4.5 -23.8°
